[[{"header":{"parameterUnit":"m.s-1","parameterCategory":1,"la1":30.2991,"la2":30.254,"lo1":-89.0895,"lo2":-89.0444,"dy":0.0017,"dx":0.0017,"nx":28,"ny":28,"refTime":"2023-08-12T21:00:00:Z","depth":0,"parameterNumber":2,"parameterNumberName":"U-component_of_WINDS"},"data":[0,0,0,0,0,0,0,0,0,0,0,0,0,0,0,0,0,0,0,0,0,0,0,0,0,0,0,0,0,0,0,0,0,0,0,0,0,0,0,0,0,0,0,0,0,0,0,0,0,0,0,0,0,0,0,0,0,0,0.542,0.5422,0,0.5559,0.556,0.5562,0.5622,0.5622,0.5622,0.5622,0.5762,0.5766,0.577,0,0,0,0,0,0,0,0,0,0,0,0,0,0.5206,0.521,0.542,0.5422,0.5424,0.5558,0.556,0.5562,0.5622,0.5622,0.5622,0.5621,0.5761,0.5766,0.577,0,0,0,0,0,0,0,0,0,0,0,0,0,0.5317,0.5211,0.542,0.547,0.5476,0.5558,0.556,0.5563,0.5622,0.5622,0.5622,0.5621,0.5759,0.5765,0.5771,0.5814,0,0,0.5789,0.5792,0,0,0,0,0,0,0,0,0.5311,0.5325,0.5461,0.5467,0.5473,0.5573,0.5537,0.5647,0.5622,0.5567,0.5622,0.5621,0.5699,0.571,0.5737,0.582,0.5826,0.579,0.5793,0.5796,0.5797,0,0,0,0,0,0,0,0.5303,0.5319,0.5475,0.5463,0.547,0.5485,0.55,0.5558,0.5633,0.5571,0.5576,0.5592,0.5703,0.5731,0.5741,0.5828,0.5789,0.5795,0.5798,0.5801,0.5954,0.5954,0,0,0,0,0,0,0.5287,0.5312,0.5471,0.5479,0.539,0.5489,0.5506,0.5541,0.5633,0.5646,0.5592,0.5594,0.5721,0.5734,0.5746,0.5802,0.5796,0.5801,0.5805,0.5953,0.5954,0.5954,0,0,0,0,0,0,0.5282,0.5301,0.5465,0.5397,0.5419,0.5493,0.5532,0.5544,0.5572,0.5648,0.5662,0.5607,0.5721,0.5737,0.5796,0.5808,0.5804,0.5809,0.5952,0.5953,0.5954,0.5914,0,0,0,0,0,0,0.5276,0.5299,0.5316,0.5397,0.5423,0.5514,0.5532,0.5547,0.5583,0.5587,0.5666,0.5679,0.5722,0.5787,0.5802,0.5816,0.5814,0.5952,0.5953,0.5954,0.5915,0.5913,0.5912,0,0,0,0,0,0.5268,0.5299,0.5317,0.5335,0.5446,0.5514,0.5529,0.5579,0.5583,0.5601,0.565,0.5676,0.5804,0.5793,0.581,0.5826,0.5951,0.5953,0.5954,0.5915,0.5914,0.5912,0,0,0,0,0,0,0.5217,0.5311,0.5331,0.5389,0.5443,0.5524,0.5548,0.5575,0.5629,0.563,0.569,0.5707,0.5761,0.5799,0.5785,0.5872,0.588,0.5884,0.5845,0.5844,0.5843,0.5832,0.5819,0,0,0,0,0,0.5212,0.5261,0.534,0.5383,0.5409,0.5474,0.5505,0.5539,0.5597,0.5621,0.5673,0.5728,0.5781,0.5814,0.5867,0.592,0.5938,0.5939,0.5938,0.5937,0.594,0.5971,0.5973,0.5958,0.5958,0.5958,0,0,0.5204,0.5261,0.5288,0.5374,0.542,0.5468,0.5493,0.5543,0.5579,0.5628,0.5687,0.5727,0.5793,0.5849,0.5877,0.5883,0.5948,0.5938,0.5937,0.5941,0.5973,0.5974,0.5975,0.5959,0.5959,0.5959,0,0,0.5212,0.526,0.5302,0.5348,0.5417,0.546,0.5469,0.5546,0.5575,0.5635,0.5673,0.5717,0.5806,0.5851,0.5886,0.5911,0.5937,0.5926,0.592,0.5949,0.595,0.5951,0.596,0.5963,0.5929,0.5929,0.5929,0,0.5193,0.5267,0.532,0.5368,0.5405,0.5452,0.5494,0.5536,0.5618,0.5642,0.5648,0.5761,0.5808,0.5876,0.5882,0.5908,0.5921,0.5917,0.5946,0.5948,0.595,0.5959,0.5962,0.5927,0.5927,0.5928,0.5928,0,0.5239,0.529,0.5316,0.5395,0.5434,0.5479,0.5538,0.5572,0.5602,0.5644,0.5704,0.5762,0.5827,0.5846,0.5876,0.5917,0.5919,0.5934,0.5944,0.5948,0.5958,0.5962,0.5925,0.5925,0.5926,0.5926,0,0,0.522,0.5328,0.5336,0.5373,0.5452,0.5492,0.5539,0.5603,0.5631,0.5685,0.5726,0.58,0.5815,0.5854,0.5889,0.5915,0.5931,0.5927,0.593,0.5926,0.598,0.5968,0.5972,0.5948,0.5949,0.595,0.5975,0,0.524,0.5326,0.5375,0.5441,0.5488,0.5533,0.5574,0.5627,0.5667,0.5713,0.5757,0.5808,0.5824,0.5848,0.5875,0.5923,0.5942,0.5922,0.5986,0.5988,0.5969,0.5977,0.5965,0.5985,0.5979,0.598,0.598,0,0.5275,0.5329,0.54,0.5474,0.5496,0.5532,0.5594,0.5637,0.5698,0.5725,0.5768,0.5803,0.5854,0.5859,0.5929,0.5913,0.5943,0.597,0.5972,0.598,0.5985,0.5985,0.5993,0.5996,0.5987,0.5986,0.5986,0,0.5254,0.5345,0.5399,0.5429,0.5517,0.554,0.5578,0.5638,0.5674,0.5728,0.5751,0.581,0.5843,0.5887,0.5937,0.5936,0.6002,0.6011,0.6026,0.6025,0.6039,0.6037,0.6051,0.6056,0.6056,0.6056,0.6056,0,0.5271,0.5312,0.5391,0.5424,0.5472,0.5527,0.5572,0.5613,0.5667,0.5708,0.575,0.5788,0.5852,0.5897,0.5936,0.5988,0.6003,0.6026,0.6036,0.6023,0.602,0.6043,0.6043,0.6057,0.6057,0.6057,0.6057,0,0.5256,0.531,0.5372,0.545,0.5471,0.5502,0.5569,0.5603,0.5644,0.5697,0.5712,0.5778,0.5834,0.5888,0.5962,0.5989,0.6041,0.6054,0.602,0.6026,0.6038,0.6036,0.6068,0.6075,0.6074,0.6074,0.6074,0,0.5263,0.5297,0.5378,0.5409,0.5446,0.5496,0.5532,0.5587,0.5623,0.5694,0.5719,0.5778,0.5829,0.5916,0.597,0.6027,0.6042,0.6049,0.6051,0.6036,0.6043,0.604,0.6044,0.6048,0.6048,0.6047,0.6047,0,0.5271,0.5296,0.5347,0.5408,0.545,0.55,0.5551,0.5574,0.5639,0.5677,0.5735,0.5774,0.5851,0.5909,0.5972,0.601,0.604,0.6046,0.6053,0.604,0.6019,0.603,0.6017,0.6045,0.6046,0.6046,0.6046,0.6046,0.5268,0.53,0.5362,0.5417,0.5462,0.5509,0.5544,0.5591,0.564,0.5707,0.5736,0.5795,0.5854,0.5942,0.598,0.6026,0.6033,0.6043,0.6045,0.6047,0.6044,0.6011,0.6038,0.6038,0.6038,0.6038,0.6038,0,0.5278,0.532,0.5371,0.5442,0.5485,0.5509,0.5567,0.5601,0.5652,0.5705,0.5754,0.582,0.5877,0.5935,0.5995,0.602,0.6035,0.6034,0.6033,0.6041,0.6034,0.6023,0.6021,0.6021,0.6021,0.6021,0.6021,0.6021,0.5289,0.5343,0.5376,0.5452,0.5494,0.5552,0.5583,0.5627,0.5669,0.5742,0.5789,0.5827,0.5882,0.5946,0.5998,0.6014,0.6034,0.6029,0.6048,0.6041,0.6042,0.6043,0.6032,0.6033,0.6033,0.6052,0.6052,0.6052]},{"header":{"parameterUnit":"m.s-1","parameterCategory":1,"la1":30.2991,"la2":30.254,"lo1":-89.0895,"lo2":-89.0444,"dy":0.0017,"dx":0.0017,"nx":28,"ny":28,"refTime":"2023-08-12T21:00:00:Z","depth":0,"parameterNumber":3,"parameterNumberName":"V-component_of_WINDS"},"data":[0,0,0,0,0,0,0,0,0,0,0,0,0,0,0,0,0,0,0,0,0,0,0,0,0,0,0,0,0,0,0,0,0,0,0,0,0,0,0,0,0,0,0,0,0,0,0,0,0,0,0,0,0,0,0,0,0,0,5.0805,5.0805,0,5.0752,5.0751,5.0751,5.0669,5.0667,5.0666,5.0665,5.0609,5.0609,5.0608,0,0,0,0,0,0,0,0,0,0,0,0,0,5.0836,5.0836,5.0805,5.0805,5.0804,5.0752,5.0751,5.075,5.0669,5.0667,5.0666,5.0664,5.0609,5.0609,5.0608,0,0,0,0,0,0,0,0,0,0,0,0,0,5.0807,5.0836,5.0805,5.0757,5.0752,5.0752,5.0751,5.075,5.0669,5.0667,5.0665,5.0663,5.0609,5.0609,5.0608,5.0651,0,0,5.0608,5.0608,0,0,0,0,0,0,0,0,5.0808,5.0806,5.0765,5.076,5.0755,5.0715,5.0741,5.0717,5.067,5.0701,5.0664,5.0662,5.0646,5.0642,5.0637,5.0648,5.0646,5.0608,5.0608,5.0608,5.0608,0,0,0,0,0,0,0,5.0811,5.0807,5.0784,5.0764,5.0758,5.0738,5.0731,5.0736,5.0686,5.0698,5.0692,5.0687,5.0643,5.0637,5.0635,5.0645,5.0608,5.0608,5.0608,5.0607,5.0689,5.0691,0,0,0,0,0,0,5.082,5.081,5.0786,5.0782,5.0777,5.0739,5.0732,5.073,5.0686,5.0677,5.0689,5.0683,5.0639,5.0635,5.0633,5.068,5.0608,5.0607,5.0607,5.0686,5.0689,5.0692,0,0,0,0,0,0,5.0821,5.0819,5.0788,5.0794,5.0789,5.0741,5.0739,5.073,5.0725,5.0679,5.0669,5.0693,5.0637,5.0633,5.0647,5.0677,5.0607,5.0607,5.0684,5.0687,5.069,5.0774,0,0,0,0,0,0,5.0822,5.0819,5.0835,5.0795,5.0789,5.0804,5.0741,5.073,5.0725,5.0717,5.068,5.0672,5.0635,5.0648,5.0647,5.0675,5.0607,5.0681,5.0685,5.0689,5.0768,5.078,5.079,0,0,0,0,0,5.0823,5.086,5.0836,5.0834,5.0808,5.0805,5.0802,5.0759,5.0728,5.0743,5.0713,5.0673,5.0674,5.065,5.0648,5.0677,5.0679,5.0684,5.0689,5.0764,5.0778,5.0789,0,0,0,0,0,0,5.0904,5.0854,5.0827,5.0852,5.0834,5.0792,5.081,5.0775,5.0764,5.0758,5.0704,5.0697,5.0718,5.0698,5.0673,5.0716,5.067,5.0675,5.0727,5.074,5.0751,5.0755,5.0607,0,0,0,0,0,5.0925,5.0928,5.0884,5.091,5.0903,5.0858,5.0855,5.0824,5.0803,5.0794,5.0766,5.0746,5.0742,5.074,5.0733,5.0765,5.0756,5.0784,5.0795,5.0804,5.0809,5.0824,5.0836,5.0708,5.0708,5.0708,0,0,5.0968,5.0941,5.0946,5.0926,5.0908,5.0912,5.0852,5.0858,5.086,5.0795,5.0806,5.0785,5.076,5.0783,5.0792,5.0768,5.0842,5.081,5.0818,5.0818,5.0831,5.0843,5.0854,5.0712,5.0711,5.0711,0,0,5.1048,5.1028,5.1048,5.1032,5.1005,5.0975,5.0981,5.0944,5.0927,5.0938,5.0889,5.0891,5.0885,5.0869,5.086,5.0935,5.0898,5.0934,5.099,5.1006,5.1016,5.1024,5.1051,5.1061,5.0939,5.094,5.094,0,5.1105,5.1108,5.1063,5.1072,5.1065,5.1007,5.1027,5.1013,5.0986,5.0982,5.0955,5.0947,5.0925,5.0944,5.0963,5.0958,5.0961,5.0938,5.1018,5.1026,5.1034,5.1058,5.1069,5.0944,5.0944,5.0943,5.0943,0,5.1179,5.1183,5.1202,5.1178,5.1173,5.1188,5.1144,5.1144,5.1114,5.1087,5.1099,5.1072,5.1059,5.1061,5.1031,5.1076,5.1062,5.1028,5.0981,5.1051,5.1074,5.1083,5.0951,5.0949,5.0948,5.0947,0,0,5.1308,5.1259,5.1267,5.1255,5.1222,5.1224,5.1236,5.1224,5.1226,5.1209,5.1218,5.1215,5.1183,5.1173,5.1141,5.1155,5.1216,5.1118,5.1117,5.1137,5.1264,5.129,5.1301,5.1191,5.1193,5.1194,5.1266,0,5.1381,5.1399,5.1359,5.1387,5.139,5.1335,5.1345,5.1327,5.1302,5.1301,5.1273,5.1272,5.123,5.1224,5.1235,5.1206,5.1241,5.1201,5.1199,5.1199,5.1206,5.1313,5.134,5.1409,5.1274,5.1276,5.1277,0,5.1469,5.1457,5.1486,5.1452,5.1451,5.1462,5.1448,5.1447,5.1425,5.1406,5.1395,5.1358,5.1367,5.1323,5.1335,5.1309,5.1306,5.1291,5.1293,5.1291,5.1242,5.1313,5.143,5.144,5.129,5.1289,5.1288,0,5.156,5.1551,5.1567,5.1559,5.152,5.1529,5.1513,5.1488,5.1483,5.1471,5.1468,5.1457,5.1451,5.1443,5.1403,5.1375,5.142,5.1372,5.1405,5.1406,5.1416,5.1416,5.1533,5.1415,5.1415,5.1415,5.1415,0,5.1645,5.1665,5.1608,5.1618,5.1638,5.1592,5.1613,5.1592,5.157,5.1575,5.1527,5.1532,5.148,5.1479,5.1449,5.1463,5.1461,5.1446,5.1437,5.145,5.1452,5.1447,5.1441,5.1417,5.1417,5.1416,5.1416,0,5.175,5.1713,5.1726,5.1688,5.1679,5.1696,5.1663,5.1671,5.1644,5.165,5.1649,5.1606,5.1603,5.1563,5.1552,5.1531,5.1558,5.154,5.1566,5.156,5.1594,5.1592,5.1712,5.1726,5.16,5.1601,5.1602,0,5.1807,5.1821,5.1785,5.1784,5.1771,5.1771,5.1767,5.1722,5.1719,5.1694,5.1705,5.1698,5.1691,5.1688,5.1656,5.1647,5.1629,5.1672,5.1627,5.1639,5.1629,5.1629,5.163,5.1681,5.1683,5.1684,5.1685,0,5.1912,5.1893,5.1888,5.1878,5.1874,5.1863,5.1849,5.1852,5.1802,5.1801,5.1798,5.1792,5.1781,5.1774,5.176,5.1743,5.1706,5.17,5.1706,5.1719,5.1733,5.1726,5.1591,5.1697,5.1696,5.1695,5.1694,5.1694,5.1994,5.2004,5.198,5.1977,5.1962,5.195,5.1956,5.193,5.1926,5.1913,5.1887,5.1888,5.1865,5.1842,5.1828,5.1828,5.1806,5.1816,5.1818,5.1821,5.1828,5.1734,5.1825,5.1825,5.1824,5.1824,5.1824,0,5.2097,5.2079,5.2076,5.2059,5.2056,5.2022,5.2005,5.2005,5.2007,5.1989,5.1983,5.1979,5.1973,5.1941,5.1931,5.1937,5.192,5.1936,5.1935,5.1932,5.1849,5.1844,5.195,5.195,5.195,5.195,5.195,5.195,5.215,5.2165,5.2143,5.2151,5.2132,5.2133,5.2126,5.2115,5.2101,5.2099,5.2094,5.2074,5.205,5.2038,5.2031,5.2022,5.202,5.2042,5.2027,5.195,5.1938,5.1926,5.1921,5.2042,5.2043,5.211,5.2111,5.2111]}]]